| time (UTC) | temp F | wind direction | speed MPH | gust MPH | rain 1hr in | rain 24hr in | rain mn in | humidity % | barometer mb |
| 20260510133033 | 64 | 198 | 1.0 | 3.0 | 0.00 | 0.00 | 0.00 | 39 | 1016.0 |
| 20260510132044 | 63 | 251 | 1.0 | 3.0 | 0.00 | 0.00 | 0.00 | 38 | 1016.0 |
| 20260510131055 | 62 | 258 | 1.0 | 5.0 | 0.00 | 0.00 | 0.00 | 38 | 1015.5 |
| 20260510130055 | 61 | 249 | 2.0 | 6.0 | 0.00 | 0.00 | 0.00 | 40 | 1015.4 |
| 20260510125106 | 62 | 257 | 1.0 | 2.0 | 0.00 | 0.00 | 0.00 | 41 | 1015.2 |
| 20260510124046 | 61 | 250 | 0.0 | 1.0 | 0.00 | 0.00 | 0.00 | 45 | 1015.0 |
| 20260510123108 | 60 | 265 | 1.0 | 1.0 | 0.00 | 0.00 | 0.00 | 49 | 1014.6 |
| 20260510122048 | 58 | 278 | 0.0 | 1.0 | 0.00 | 0.00 | 0.00 | 51 | 1014.8 |
| 20260510121027 | 56 | 268 | 0.0 | 2.0 | 0.00 | 0.00 | 0.00 | 57 | 1014.7 |
| 20260510120110 | 53 | 268 | 0.0 | 1.0 | 0.00 | 0.00 | 0.00 | 64 | 1014.4 |
| 20260510115050 | 52 | 0.0 | 0.0 | 0.00 | 0.00 | 0.00 | 67 | 1014.2 | |
| 20260510114101 | 51 | 0.0 | 0.0 | 0.00 | 0.00 | 0.00 | 69 | 1014.0 | |
| 20260510113040 | 50 | 0.0 | 0.0 | 0.00 | 0.00 | 0.00 | 69 | 1014.0 | |
| 20260510112021 | 50 | 0.0 | 0.0 | 0.00 | 0.00 | 0.00 | 68 | 1013.9 | |
| 20260510111032 | 50 | 0.0 | 0.0 | 0.00 | 0.00 | 0.00 | 67 | 1013.5 | |
| 20260510110113 | 50 | 0.0 | 0.0 | 0.00 | 0.00 | 0.00 | 67 | 1013.1 | |
| 20260510105053 | 50 | 0.0 | 0.0 | 0.00 | 0.00 | 0.00 | 66 | 1013.1 | |
| 20260510104105 | 51 | 274 | 0.0 | 2.0 | 0.00 | 0.00 | 0.00 | 66 | 1012.9 |
| 20260510103045 | 50 | 0.0 | 0.0 | 0.00 | 0.00 | 0.00 | 66 | 1012.7 | |
| 20260510102025 | 51 | 0.0 | 0.0 | 0.00 | 0.00 | 0.00 | 65 | 1012.7 | |
| 20260510101107 | 52 | 0.0 | 0.0 | 0.00 | 0.00 | 0.00 | 64 | 1012.5 | |
| 20260510100047 | 52 | 0.0 | 0.0 | 0.00 | 0.00 | 0.00 | 63 | 1012.6 | |
| 20260510095101 | 52 | 0.0 | 0.0 | 0.00 | 0.00 | 0.00 | 63 | 1012.8 | |
| 20260510094038 | 52 | 274 | 0.0 | 1.0 | 0.00 | 0.00 | 0.00 | 62 | 1012.6 |
| 20260510093018 | 53 | 0.0 | 0.0 | 0.00 | 0.00 | 0.00 | 63 | 1012.5 | |
| 20260510092120 | 53 | 0.0 | 0.0 | 0.00 | 0.00 | 0.00 | 62 | 1012.3 | |
| 20260510091041 | 54 | 0.0 | 0.0 | 0.00 | 0.00 | 0.00 | 61 | 1012.4 | |
| 20260510090020 | 54 | 0.0 | 0.0 | 0.00 | 0.00 | 0.00 | 60 | 1012.3 | |
| 20260510085102 | 54 | 0.0 | 0.0 | 0.00 | 0.00 | 0.00 | 59 | 1012.0 | |
| 20260510084042 | 55 | 0.0 | 0.0 | 0.00 | 0.00 | 0.00 | 58 | 1011.9 | |
| 20260510083021 | 55 | 274 | 0.0 | 1.0 | 0.00 | 0.00 | 0.00 | 58 | 1011.8 |
| 20260510082103 | 55 | 274 | 0.0 | 2.0 | 0.00 | 0.00 | 0.00 | 58 | 1011.8 |
| 20260510081105 | 55 | 259 | 2.0 | 5.0 | 0.00 | 0.00 | 0.00 | 57 | 1011.3 |
| 20260510080024 | 55 | 262 | 1.0 | 2.0 | 0.00 | 0.00 | 0.00 | 58 | 1011.4 |
| 20260510075107 | 55 | 271 | 1.0 | 2.0 | 0.00 | 0.00 | 0.00 | 57 | 1011.2 |
| 20260510074118 | 56 | 288 | 0.0 | 2.0 | 0.00 | 0.00 | 0.00 | 56 | 1011.1 |
| 20260510073057 | 56 | 284 | 0.0 | 2.0 | 0.00 | 0.00 | 0.00 | 57 | 1010.9 |
| 20260510072036 | 56 | 285 | 1.0 | 2.0 | 0.00 | 0.00 | 0.00 | 57 | 1010.6 |
| 20260510071119 | 56 | 283 | 1.0 | 3.0 | 0.00 | 0.00 | 0.00 | 56 | 1010.9 |
| 20260510070118 | 56 | 274 | 0.0 | 2.0 | 0.00 | 0.00 | 0.00 | 57 | 1010.8 |
| 20260510065112 | 56 | 259 | 2.0 | 6.0 | 0.00 | 0.00 | 0.00 | 62 | 1010.7 |
| 20260510064050 | 55 | 259 | 0.0 | 1.0 | 0.00 | 0.00 | 0.00 | 72 | 1010.5 |
| 20260510063030 | 54 | 248 | 1.0 | 2.0 | 0.00 | 0.00 | 0.00 | 81 | 1010.5 |
| 20260510062100 | 54 | 208 | 0.0 | 1.0 | 0.00 | 0.00 | 0.00 | 86 | 1010.6 |
| 20260510061020 | 56 | 215 | 1.0 | 5.0 | 0.00 | 0.00 | 0.00 | 87 | 1010.4 |
| 20260510055042 | 57 | 0.0 | 0.0 | 0.00 | 0.00 | 0.00 | 87 | 1009.9 | |
| 20260510054114 | 57 | 0.0 | 0.0 | 0.00 | 0.00 | 0.00 | 87 | 1010.0 | |
| 20260510053034 | 57 | 0.0 | 0.0 | 0.00 | 0.00 | 0.00 | 87 | 1010.1 | |
| 20260510052116 | 57 | 0.0 | 0.0 | 0.00 | 0.00 | 0.00 | 87 | 1009.9 | |
| 20260510051116 | 58 | 0.0 | 0.0 | 0.00 | 0.00 | 0.00 | 86 | 1009.9 | |
| 20260510050039 | 58 | 0.0 | 0.0 | 0.00 | 0.00 | 0.00 | 86 | 1009.7 | |
| 20260510045117 | 58 | 0.0 | 0.0 | 0.00 | 0.00 | 0.00 | 86 | 1009.7 | |
| 20260510044057 | 59 | 0.0 | 0.0 | 0.00 | 0.00 | 0.00 | 85 | 1009.7 | |
| 20260510043038 | 59 | 0.0 | 0.0 | 0.00 | 0.00 | 0.00 | 85 | 1009.7 | |
| 20260510042018 | 59 | 0.0 | 0.0 | 0.00 | 0.00 | 0.00 | 84 | 1009.7 | |
| 20260510041100 | 59 | 0.0 | 0.0 | 0.00 | 0.00 | 0.00 | 84 | 1009.7 | |
| 20260510040041 | 59 | 0.0 | 0.0 | 0.00 | 0.00 | 0.00 | 83 | 1009.5 | |
| 20260510035020 | 59 | 0.0 | 0.0 | 0.00 | 0.00 | 0.00 | 82 | 1009.6 | |
| 20260510034122 | 60 | 0.0 | 0.0 | 0.00 | 0.00 | 0.00 | 81 | 1009.7 | |
| 20260510033042 | 60 | 105 | 0.0 | 1.0 | 0.00 | 0.00 | 0.00 | 79 | 1009.6 |
| 20260510032022 | 62 | 105 | 0.0 | 1.0 | 0.00 | 0.00 | 0.00 | 74 | 1009.3 |
| 20260510031103 | 63 | 0.0 | 0.0 | 0.00 | 0.00 | 0.00 | 68 | 1009.1 | |
| 20260510030134 | 63 | 105 | 0.0 | 1.0 | 0.00 | 0.00 | 0.00 | 67 | 1009.0 |
| 20260510025023 | 63 | 105 | 0.0 | 1.0 | 0.00 | 0.00 | 0.00 | 67 | 1009.0 |
| 20260510024107 | 63 | 105 | 0.0 | 1.0 | 0.00 | 0.00 | 0.00 | 67 | 1008.8 |
| 20260510023046 | 63 | 0.0 | 0.0 | 0.00 | 0.00 | 0.00 | 67 | 1008.8 | |
| 20260510022026 | 63 | 0.0 | 0.0 | 0.00 | 0.00 | 0.00 | 66 | 1008.7 | |
| 20260510021108 | 63 | 0.0 | 0.0 | 0.00 | 0.00 | 0.00 | 65 | 1008.5 | |
| 20260510020119 | 64 | 0.0 | 0.0 | 0.00 | 0.00 | 0.00 | 64 | 1008.4 | |
| 20260510015058 | 64 | 0.0 | 0.0 | 0.00 | 0.00 | 0.00 | 63 | 1008.2 | |
| 20260510014039 | 64 | 0.0 | 0.0 | 0.00 | 0.00 | 0.00 | 62 | 1008.1 | |
| 20260510013018 | 65 | 105 | 0.0 | 2.0 | 0.00 | 0.00 | 0.00 | 61 | 1007.8 |
| 20260510012101 | 65 | 0.0 | 0.0 | 0.00 | 0.00 | 0.00 | 60 | 1007.7 | |
| 20260510011111 | 66 | 105 | 0.0 | 1.0 | 0.00 | 0.00 | 0.00 | 59 | 1007.6 |
| 20260510010051 | 66 | 105 | 0.0 | 1.0 | 0.00 | 0.00 | 0.00 | 58 | 1007.5 |
| 20260510005032 | 67 | 0.0 | 0.0 | 0.00 | 0.00 | 0.00 | 57 | 1007.3 | |
| 20260510004113 | 67 | 105 | 1.0 | 2.0 | 0.00 | 0.00 | 0.00 | 55 | 1007.3 |
| 20260510003053 | 68 | 105 | 1.0 | 2.0 | 0.00 | 0.00 | 0.00 | 54 | 1007.1 |
| 20260510002034 | 68 | 105 | 1.0 | 2.0 | 0.00 | 0.00 | 0.00 | 54 | 1007.1 |
| 20260510001115 | 68 | 105 | 1.0 | 3.0 | 0.00 | 0.00 | 0.00 | 53 | 1007.1 |
| 20260510000055 | 69 | 105 | 1.0 | 3.0 | 0.00 | 0.00 | 0.00 | 53 | 1007.0 |
| 20260509235036 | 69 | 105 | 1.0 | 2.0 | 0.00 | 0.00 | 0.00 | 52 | 1006.9 |
| 20260509234118 | 69 | 113 | 1.0 | 2.0 | 0.00 | 0.00 | 0.00 | 51 | 1006.8 |
| 20260509233058 | 70 | 115 | 1.0 | 3.0 | 0.00 | 0.00 | 0.00 | 50 | 1006.7 |
| 20260509232038 | 70 | 121 | 2.0 | 3.0 | 0.00 | 0.00 | 0.00 | 50 | 1006.8 |
| 20260509231017 | 70 | 119 | 2.0 | 6.0 | 0.00 | 0.00 | 0.00 | 50 | 1006.6 |
| 20260509230120 | 70 | 98 | 2.0 | 5.0 | 0.00 | 0.00 | 0.00 | 49 | 1006.7 |
| 20260509225040 | 70 | 101 | 1.0 | 2.0 | 0.00 | 0.00 | 0.00 | 48 | 1006.6 |
| 20260509224020 | 71 | 117 | 2.0 | 5.0 | 0.00 | 0.00 | 0.00 | 47 | 1006.7 |
| 20260509223121 | 71 | 99 | 1.0 | 5.0 | 0.00 | 0.00 | 0.00 | 47 | 1006.5 |
| 20260509222042 | 71 | 123 | 2.0 | 3.0 | 0.00 | 0.00 | 0.00 | 48 | 1006.4 |
| 20260509221022 | 71 | 120 | 1.0 | 3.0 | 0.00 | 0.00 | 0.00 | 48 | 1006.4 |
| 20260509220104 | 71 | 113 | 1.0 | 3.0 | 0.00 | 0.00 | 0.00 | 49 | 1006.4 |
| 20260509215044 | 72 | 87 | 1.0 | 3.0 | 0.00 | 0.00 | 0.00 | 47 | 1006.5 |
| 20260509214024 | 72 | 110 | 2.0 | 6.0 | 0.00 | 0.00 | 0.00 | 46 | 1006.3 |
| 20260509213105 | 72 | 106 | 3.0 | 5.0 | 0.00 | 0.00 | 0.00 | 45 | 1006.2 |
| 20260509212106 | 72 | 89 | 1.0 | 2.0 | 0.00 | 0.00 | 0.00 | 45 | 1006.3 |
| 20260509211026 | 72 | 110 | 2.0 | 5.0 | 0.00 | 0.00 | 0.00 | 43 | 1006.2 |
| 20260509210108 | 73 | 90 | 1.0 | 2.0 | 0.00 | 0.00 | 0.00 | 42 | 1006.1 |
| 20260509205047 | 73 | 92 | 2.0 | 5.0 | 0.00 | 0.00 | 0.00 | 42 | 1006.2 |
| 20260509204027 | 74 | 83 | 2.0 | 5.0 | 0.00 | 0.00 | 0.00 | 42 | 1006.2 |
| 20260509203110 | 73 | 113 | 2.0 | 3.0 | 0.00 | 0.00 | 0.00 | 43 | 1006.3 |
| 20260509202110 | 73 | 108 | 2.0 | 6.0 | 0.00 | 0.00 | 0.00 | 44 | 1006.3 |
| 20260509201050 | 73 | 114 | 2.0 | 6.0 | 0.00 | 0.00 | 0.00 | 43 | 1006.4 |
| 20260509200111 | 73 | 111 | 2.0 | 3.0 | 0.00 | 0.00 | 0.00 | 44 | 1006.6 |
| 20260509195051 | 73 | 69 | 2.0 | 5.0 | 0.00 | 0.00 | 0.00 | 45 | 1006.6 |
| 20260509194031 | 73 | 98 | 2.0 | 7.0 | 0.00 | 0.00 | 0.00 | 45 | 1006.6 |
| 20260509193113 | 72 | 80 | 2.0 | 5.0 | 0.00 | 0.00 | 0.00 | 48 | 1006.8 |
| 20260509192053 | 72 | 88 | 2.0 | 3.0 | 0.00 | 0.00 | 0.00 | 47 | 1006.8 |
| 20260509191034 | 72 | 107 | 2.0 | 3.0 | 0.00 | 0.00 | 0.00 | 47 | 1006.8 |
| 20260509190116 | 72 | 106 | 2.0 | 6.0 | 0.00 | 0.00 | 0.00 | 48 | 1006.7 |
| 20260509185055 | 71 | 87 | 3.0 | 6.0 | 0.00 | 0.00 | 0.00 | 50 | 1006.8 |
| 20260509184035 | 71 | 92 | 3.0 | 6.0 | 0.00 | 0.00 | 0.00 | 51 | 1006.9 |
| 20260509183118 | 70 | 103 | 2.0 | 5.0 | 0.00 | 0.00 | 0.00 | 54 | 1007.0 |
| 20260509182058 | 70 | 81 | 2.0 | 3.0 | 0.00 | 0.00 | 0.00 | 55 | 1006.9 |
| 20260509181037 | 69 | 89 | 3.0 | 6.0 | 0.00 | 0.00 | 0.00 | 56 | 1006.9 |
| 20260509180017 | 69 | 119 | 2.0 | 6.0 | 0.00 | 0.00 | 0.00 | 56 | 1007.0 |
| 20260509175100 | 69 | 96 | 2.0 | 3.0 | 0.00 | 0.00 | 0.00 | 56 | 1007.1 |
| 20260509174040 | 69 | 91 | 1.0 | 5.0 | 0.00 | 0.00 | 0.00 | 57 | 1007.1 |
| 20260509173020 | 68 | 107 | 2.0 | 3.0 | 0.00 | 0.00 | 0.00 | 58 | 1007.4 |
| 20260509172101 | 67 | 118 | 2.0 | 5.0 | 0.00 | 0.00 | 0.00 | 59 | 1007.4 |
| 20260509171101 | 68 | 110 | 2.0 | 2.0 | 0.00 | 0.00 | 0.00 | 58 | 1007.4 |
| 20260509170041 | 67 | 117 | 1.0 | 3.0 | 0.00 | 0.00 | 0.00 | 59 | 1007.5 |
| 20260509165123 | 66 | 110 | 2.0 | 6.0 | 0.00 | 0.00 | 0.00 | 60 | 1007.5 |
| 20260509164043 | 67 | 28 | 2.0 | 5.0 | 0.00 | 0.00 | 0.00 | 60 | 1007.7 |
| 20260509163056 | 66 | 94 | 1.0 | 2.0 | 0.00 | 0.00 | 0.00 | 61 | 1007.6 |
| 20260509162035 | 66 | 82 | 1.0 | 3.0 | 0.00 | 0.00 | 0.00 | 61 | 1007.5 |
| 20260509161116 | 66 | 81 | 2.0 | 6.0 | 0.00 | 0.00 | 0.00 | 60 | 1007.6 |
| 20260509160056 | 66 | 38 | 2.0 | 6.0 | 0.00 | 0.00 | 0.00 | 62 | 1007.6 |
| 20260509155037 | 65 | 76 | 1.0 | 3.0 | 0.00 | 0.00 | 0.00 | 63 | 1007.5 |
| 20260509154118 | 65 | 76 | 2.0 | 6.0 | 0.00 | 0.00 | 0.00 | 63 | 1007.8 |
| 20260509153058 | 65 | 76 | 2.0 | 5.0 | 0.00 | 0.00 | 0.00 | 63 | 1007.4 |
| 20260509152113 | 64 | 75 | 2.0 | 3.0 | 0.00 | 0.00 | 0.00 | 64 | 1007.5 |
| 20260509151038 | 64 | 75 | 1.0 | 3.0 | 0.00 | 0.00 | 0.00 | 64 | 1007.6 |
| 20260509150100 | 63 | 75 | 1.0 | 3.0 | 0.00 | 0.00 | 0.00 | 64 | 1007.5 |
| 20260509145111 | 63 | 75 | 2.0 | 3.0 | 0.00 | 0.00 | 0.00 | 65 | 1007.4 |
| 20260509144021 | 63 | 111 | 1.0 | 3.0 | 0.00 | 0.00 | 0.00 | 64 | 1007.3 |
| 20260509143034 | 62 | 127 | 1.0 | 3.0 | 0.00 | 0.00 | 0.00 | 65 | 1007.5 |
| 20260509142113 | 61 | 105 | 2.0 | 3.0 | 0.00 | 0.00 | 0.00 | 68 | 1007.4 |
| 20260509141053 | 61 | 133 | 2.0 | 3.0 | 0.00 | 0.00 | 0.00 | 68 | 1007.4 |
| 20260509140033 | 61 | 97 | 1.0 | 5.0 | 0.00 | 0.00 | 0.00 | 70 | 1007.3 |
| 20260509135045 | 60 | 84 | 1.0 | 2.0 | 0.00 | 0.00 | 0.00 | 72 | 1007.3 |
| 20260509134025 | 60 | 103 | 1.0 | 3.0 | 0.00 | 0.00 | 0.00 | 74 | 1007.3 |